Weather History for Denison, IA

Change the Weather History Date:

Sunday, November 3, 2013

  Actual Average Record
Temperature  
Mean Temperature 46 °F -  
Max Temperature 55 °F 51 °F 78 °F (2008)
Min Temperature 37 °F 33 °F 17 °F (2006)
Degree Days  
Heating Degree Days 19    
Moisture  
Dew Point 32 °F    
Average Humidity 57    
Maximum Humidity 81    
Minimum Humidity 36    
Precipitation  
Precipitation 0.00 in - - ()
Sea Level Pressure  
Sea Level Pressure 29.91 in    
Wind  
Wind Speed 15 mph (SSE)    
Max Wind Speed 39 mph    
Max Gust Speed 47 mph    
Visibility 10 miles    
Events      
Averages and records for this station are not official NWS values.
T = Trace of Precipitation, MM = Missing Value Source: NWS Daily Summary

Daily Weather History Graph

Daily Weather History Graph

Search for Another Location

Airport:

Trip Planner

Search our weather history database for the weather conditions in past years. The results will help you decide how hot, cold, wet, or windy it might be!

Date:

Astronomy

Nov. 03, 2013 Rise Set
Actual Time 6:56 AM CST 5:12 PM CST
Civil Twilight 6:27 AM CST 5:41 PM CST
Nautical Twilight 5:54 AM CST 6:14 PM CST
Astronomical Twilight 5:22 AM CST 6:47 PM CST
Moon 7:02 AM CST (11/3) 5:27 PM CST (11/3)
Length of Visible Light 11h 14m
Length of Day
10h 15m
Waxing Crescent, 0% of the Moon is Illuminated
Nov 3
Waxing Crescent
Nov 9
First Quarter
Nov 17
Full
Nov 25
Last Quarter
Dec 2
New

Hourly Weather History & Observations

Time (CST) Temp. Windchill Dew Point Humidity Pressure Visibility Wind Dir Wind Speed Gust Speed Precip Events Conditions
12:15 AM 39.2 °F 35.9 °F 32.0 °F 75% 30.07 in 10.0 mi WSW 4.6 mph - N/A   Clear
12:35 AM 39.2 °F 35.9 °F 32.0 °F 75% 30.07 in 10.0 mi Variable 4.6 mph - N/A   Clear
12:55 AM 39.2 °F 37.0 °F 32.0 °F 75% 30.07 in 10.0 mi Variable 3.5 mph - N/A   Clear
1:15 AM 39.2 °F 35.9 °F 32.0 °F 75% 30.07 in 10.0 mi Variable 4.6 mph - N/A   Clear
1:35 AM 39.2 °F 34.2 °F 32.0 °F 75% 30.07 in 10.0 mi SSW 6.9 mph - N/A   Clear
1:55 AM 41.0 °F 34.7 °F 32.0 °F 70% 30.06 in 10.0 mi South 10.4 mph - N/A   Clear
1:15 AM 39.2 °F 34.2 °F 32.0 °F 75% 30.07 in 10.0 mi Variable 6.9 mph - N/A   Clear
1:35 AM 39.2 °F 32.5 °F 32.0 °F 75% 30.07 in 10.0 mi South 10.4 mph - N/A   Clear
1:55 AM 39.2 °F 32.0 °F 32.0 °F 75% 30.06 in 10.0 mi South 11.5 mph - N/A   Clear
2:15 AM 39.2 °F 32.5 °F 32.0 °F 75% 30.06 in 10.0 mi South 10.4 mph 17.3 mph N/A   Clear
2:35 AM 41.0 °F 33.5 °F 32.0 °F 70% 30.05 in 10.0 mi South 13.8 mph 19.6 mph N/A   Clear
2:55 AM 39.2 °F 30.5 °F 32.0 °F 75% 30.04 in 10.0 mi South 16.1 mph 23.0 mph N/A   Clear
3:15 AM 39.2 °F 30.8 °F 32.0 °F 75% 30.04 in 10.0 mi SSE 15.0 mph - N/A   Clear
3:35 AM 39.2 °F 30.8 °F 32.0 °F 75% 30.03 in 10.0 mi SSE 15.0 mph - N/A   Clear
3:55 AM 41.0 °F 33.1 °F 32.0 °F 70% 30.04 in 10.0 mi South 15.0 mph 23.0 mph N/A   Clear
4:15 AM 39.2 °F 30.8 °F 32.0 °F 75% 30.03 in 10.0 mi South 15.0 mph 20.7 mph N/A   Clear
4:35 AM 39.2 °F 31.6 °F 32.0 °F 75% 30.04 in 10.0 mi SSE 12.7 mph - N/A   Clear
4:55 AM 37.4 °F 29.8 °F 32.0 °F 81% 30.03 in 10.0 mi SSE 11.5 mph - N/A   Clear
5:15 AM 37.4 °F 29.8 °F 32.0 °F 81% 30.03 in 10.0 mi SSE 11.5 mph - N/A   Clear
5:35 AM 39.2 °F 31.2 °F 32.0 °F 75% 30.02 in 10.0 mi SSE 13.8 mph - N/A   Clear
5:55 AM 39.2 °F 31.6 °F 32.0 °F 75% 30.01 in 10.0 mi SSE 12.7 mph - N/A   Clear
6:15 AM 39.2 °F 32.0 °F 32.0 °F 75% 30.00 in 10.0 mi SSE 11.5 mph - N/A   Clear
6:35 AM 39.2 °F 31.6 °F 32.0 °F 75% 29.99 in 10.0 mi SSE 12.7 mph - N/A   Clear
6:55 AM 39.2 °F 31.2 °F 32.0 °F 75% 29.99 in 10.0 mi SSE 13.8 mph - N/A   Clear
7:15 AM 39.2 °F 31.2 °F 32.0 °F 75% 29.99 in 10.0 mi South 13.8 mph - N/A   Clear
7:35 AM 39.2 °F 30.2 °F 32.0 °F 75% 29.98 in 10.0 mi SSE 17.3 mph 25.3 mph N/A   Clear
7:55 AM 41.0 °F 32.2 °F 32.0 °F 70% 29.98 in 10.0 mi SSE 18.4 mph 31.1 mph N/A   Clear
8:15 AM 42.8 °F 34.3 °F 32.0 °F 66% 29.98 in 10.0 mi South 19.6 mph 27.6 mph N/A   Clear
8:35 AM 44.6 °F 35.9 °F 32.0 °F 61% 29.97 in 10.0 mi South 23.0 mph 29.9 mph N/A   Clear
8:55 AM 46.4 °F 37.7 °F 32.0 °F 57% 29.97 in 10.0 mi South 26.5 mph 38.0 mph N/A   Clear
9:15 AM 48.2 °F - 32.0 °F 54% 29.96 in 10.0 mi South 24.2 mph 38.0 mph N/A   Clear
9:35 AM 48.2 °F - 32.0 °F 54% 29.94 in 10.0 mi South 28.8 mph 42.6 mph N/A   Clear
9:55 AM 50.0 °F - 32.0 °F 50% 29.93 in 10.0 mi South 27.6 mph 42.6 mph N/A   Clear
10:15 AM 51.8 °F - 30.2 °F 44% 29.92 in 10.0 mi South 31.1 mph 46.0 mph N/A   Clear
10:35 AM 51.8 °F - 30.2 °F 44% 29.91 in 10.0 mi South 39.1 mph 47.2 mph N/A   Clear
10:55 AM 53.6 °F - 30.2 °F 41% 29.90 in 10.0 mi South 25.3 mph 46.0 mph N/A   Clear
11:15 AM 53.6 °F - 28.4 °F 38% 29.89 in 10.0 mi SSE 35.7 mph 47.2 mph N/A   Clear
11:35 AM 53.6 °F - 30.2 °F 41% 29.87 in 10.0 mi SSE 27.6 mph 41.4 mph N/A   Clear
11:55 AM 55.4 °F - 28.4 °F 36% 29.86 in 10.0 mi SSE 29.9 mph 40.3 mph N/A   Clear
12:15 PM 55.4 °F - 30.2 °F 38% 29.84 in 10.0 mi South 28.8 mph 46.0 mph N/A   Clear
12:35 PM 55.4 °F - 28.4 °F 36% 29.83 in 10.0 mi South 26.5 mph 47.2 mph N/A   Clear
12:55 PM 55.4 °F - 28.4 °F 36% 29.82 in 10.0 mi South 32.2 mph 47.2 mph N/A   Clear
1:15 PM 55.4 °F - 30.2 °F 38% 29.80 in 10.0 mi SSE 26.5 mph 44.9 mph N/A   Clear
1:35 PM 55.4 °F - 28.4 °F 36% 29.79 in 10.0 mi SSE 27.6 mph 40.3 mph N/A   Clear
1:55 PM 55.4 °F - 30.2 °F 38% 29.80 in 10.0 mi South 24.2 mph 42.6 mph N/A   Clear
2:15 PM 55.4 °F - 28.4 °F 36% 29.80 in 10.0 mi SSE 25.3 mph 35.7 mph N/A   Clear
2:35 PM 55.4 °F - 30.2 °F 38% 29.80 in 10.0 mi SSE 23.0 mph 41.4 mph N/A   Clear
2:55 PM 55.4 °F - 30.2 °F 38% 29.80 in 10.0 mi South 28.8 mph 38.0 mph N/A   Clear
3:15 PM 55.4 °F - 30.2 °F 38% 29.80 in 10.0 mi South 25.3 mph 35.7 mph N/A   Clear
3:35 PM 55.4 °F - 32.0 °F 41% 29.79 in 10.0 mi South 26.5 mph 41.4 mph N/A   Clear
3:55 PM 53.6 °F - 32.0 °F 44% 29.78 in 10.0 mi South 26.5 mph 36.8 mph N/A   Clear
4:15 PM 53.6 °F - 32.0 °F 44% 29.77 in 10.0 mi SSE 24.2 mph 39.1 mph N/A   Clear
4:35 PM 53.6 °F - 32.0 °F 44% 29.76 in 10.0 mi SSE 25.3 mph 32.2 mph N/A   Clear
4:55 PM 53.6 °F - 32.0 °F 44% 29.76 in 10.0 mi SSE 19.6 mph 31.1 mph N/A   Clear
5:15 PM 51.8 °F - 32.0 °F 47% 29.76 in 10.0 mi South 20.7 mph 29.9 mph N/A   Clear
5:35 PM 51.8 °F - 32.0 °F 47% 29.77 in 10.0 mi SSE 19.6 mph 28.8 mph N/A   Clear
5:55 PM 51.8 °F - 32.0 °F 47% 29.77 in 10.0 mi SSE 20.7 mph 26.5 mph N/A   Clear
6:15 PM 51.8 °F - 33.8 °F 50% 29.78 in 10.0 mi SSE 16.1 mph 26.5 mph N/A   Clear
6:35 PM 51.8 °F - 33.8 °F 50% 29.79 in 10.0 mi SSE 17.3 mph 26.5 mph N/A   Clear
6:55 PM 51.8 °F - 33.8 °F 50% 29.79 in 10.0 mi SSE 19.6 mph 27.6 mph N/A   Clear
7:15 PM 51.8 °F - 33.8 °F 50% 29.79 in 10.0 mi SSE 18.4 mph 27.6 mph N/A   Clear
7:35 PM 50.0 °F - 33.8 °F 54% 29.80 in 10.0 mi South 15.0 mph 25.3 mph N/A   Clear
7:55 PM 50.0 °F - 33.8 °F 54% 29.81 in 10.0 mi SSE 15.0 mph 24.2 mph N/A   Clear
8:15 PM 50.0 °F - 33.8 °F 54% 29.80 in 10.0 mi SSE 15.0 mph 20.7 mph N/A   Clear
8:35 PM 50.0 °F - 35.6 °F 58% 29.80 in 10.0 mi SSE 16.1 mph 23.0 mph N/A   Partly Cloudy
8:55 PM 50.0 °F - 35.6 °F 58% 29.80 in 10.0 mi North - - N/A   Scattered Clouds
9:15 PM 51.8 °F - 35.6 °F 54% 29.81 in 10.0 mi South 19.6 mph 25.3 mph N/A   Mostly Cloudy
9:35 PM 51.8 °F - 35.6 °F 54% 29.80 in 10.0 mi South 20.7 mph 29.9 mph N/A   Scattered Clouds
9:55 PM 51.8 °F - 35.6 °F 54% 29.81 in 10.0 mi South 19.6 mph 31.1 mph N/A   Scattered Clouds
10:15 PM 51.8 °F - 35.6 °F 54% 29.81 in 10.0 mi SSE 21.9 mph - N/A   Mostly Cloudy
10:35 PM 51.8 °F - 35.6 °F 54% 29.81 in 10.0 mi South 19.6 mph 28.8 mph N/A   Mostly Cloudy
10:55 PM 51.8 °F - 37.4 °F 58% 29.81 in 10.0 mi South 20.7 mph 29.9 mph N/A   Overcast